{"data":{"norad_id":69867,"intl_designator":"2026-155V","name":"QIANFAN-238","alt_names":[],"object_type":"PAYLOAD","status":"ACTIVE","operator":null,"country":"PRC","launch_date":"2026-07-05","launch_site_code":"WSC","launch_vehicle":null,"mission":null,"orbit_class":"UNKNOWN","rcs_meters":null,"size_class":null,"mass_kg":null,"dimensions":null,"purposes":[],"wikipedia_slug":null,"has_3d_model":false,"image_url":null,"decayed_at":null,"tle_current":{"epoch":"2026-09-19T19:52:45.722208Z","epoch_age_seconds":79695,"freshness":"FRESH","line1":"1 69867U 26155V   26262.82830697 -.01832833  00000+0 -29998+1 0  9992","line2":"2 69867  89.0086  53.7592 0027073  13.6111 346.5765 13.51721159 10655","mean_motion":13.51721159,"eccentricity":0.0027073,"inclination_deg":89.0086,"raan_deg":53.7592,"arg_perigee_deg":13.6111,"mean_anomaly_deg":346.5765,"bstar":-2.9998,"rev_number":1065,"period_min":106.53084701769,"perigee_km":1045.7794122009,"apogee_km":1086.086072227,"semimajor_km":7444.0697422139,"source":"CELESTRAK","updated_at":"2026-09-20T09:00:25.161822Z"}}}